Regional Weather Roundup
Issued by NWS

Home | Current Version | Previous Version | Graphics & Text | Print | Product List | Glossary On
Versions: 1 2 3 4 5 6 7 8 9 10 11 12 13 14 15 16 17 18 19 20 21 22 23 24 25 26 27 28 29 30 31 32 33 34 35 36 37 38 39 40 41 42 43 44 45 46 47 48 49 50
000
ASUS45 KABQ 270710
RWRNM
NEW MEXICO REGIONAL WEATHER ROUNDUP
NATIONAL WEATHER SERVICE ALBUQUERQUE NM
100 AM MDT MON MAR 27 2017

NOTE: "FAIR" MEANS FEW OR NO CLOUDS BELOW 12,000 FEET AGL WITH NO
       SIGNIFICANT WEATHER OR OBSTRUCTIONS TO VISION.

      THIS PRODUCT IS RELEASED AS TWO VERSIONS.  ONE VERSION NEAR
      THE TOP OF THE HOUR CONTAINING PRELIMINARY DATA FROM ALBUQUERQUE
      AND OTHER STATIONS.  A FINAL VERSION WITH ADDITIONAL DATA IS
      ISSUED ABOUT 10 MINUTES AFTER THE HOUR.

NMZ501-503-504-510>518-270800-
NORTHWEST PLATEAU/NORTHCENTRAL MOUNTAINS

CITY           SKY/WX    TMP DP  RH WIND       PRES   REMARKS
FARMINGTON     FAIR      40  31  70 CALM      30.00S
LOS ALAMOS     FAIR      45  19  35 SW3       30.06R
SANTA FE       FAIR      38  25  59 E5        30.03R WCI  34
TAOS             N/A     34  23  64 SE9       30.04S WCI  26
ANGEL FIRE     FAIR      31  26  81 CALM      30.06F

$$
NMZ402-403-502-505>509-270800-
WESTCENTRAL MOUNTAINS/SOUTHWEST MOUNTAINS

CITY           SKY/WX    TMP DP  RH WIND       PRES   REMARKS
GALLUP         FAIR      34  26  72 NE5       30.07R WCI  30
GRANTS         FAIR      32  21  64 CALM      30.08R
SILVER CITY    FAIR      41  20  43 NW10      30.05S

$$
NMZ407-409-411-412-270800-
SOUTHERN DESERTS

CITY           SKY/WX    TMP DP  RH WIND       PRES   REMARKS
DEMING         FAIR      49  20  31 SW10      30.01R
LAS CRUCES     FAIR      51  17  25 CALM      30.01S
HOLLOMAN AFB   FAIR      52  18  26 SE7       29.99F
ALAMOGORDO     FAIR      52  18  25 SE3       29.98S
T OR C         FAIR      54  16  22 NW8       29.99S

$$
NMZ519>523-270800-
CENTRAL VALLEYS/CENTRAL HIGHLANDS

CITY           SKY/WX    TMP DP  RH WIND       PRES   REMARKS
ALBUQUERQUE    MOCLDY    47  23  38 E5        30.02S
MORIARTY ARPT  FAIR      33  22  61 SE5       30.06R WCI  29
CLINES CORNERS FAIR      36  20  52 NW6       30.06F WCI  31
BELEN          FAIR      48  20  33 CALM      30.02S
SOCORRO        FAIR      55  13  19 N3        30.01R

$$
NMZ524>526-539-540-270800-
SOUTHCENTRAL MOUNTAINS

CITY           SKY/WX    TMP DP  RH WIND       PRES   REMARKS
RUIDOSO        FAIR      41  10  28 CALM      30.09S

$$
NMZ527>531-270800-
NORTHEAST HIGHLANDS/NORTHEAST PLAINS

CITY           SKY/WX    TMP DP  RH WIND       PRES   REMARKS
LAS VEGAS      FAIR      35  27  72 S6        30.02F WCI  30
RATON          FAIR      35  31  85 NE5       29.99S WCI  31
CLAYTON        FAIR      40  38  93 N5        29.98R

$$
NMZ532>537-270800-
EASTCENTRAL PLAINS

CITY           SKY/WX    TMP DP  RH WIND       PRES   REMARKS
TUCUMCARI      FAIR      41  34  76 E3        29.97S
CANNON AFB     FAIR      42  38  86 N14       29.97R
CLOVIS AIRPORT FAIR      41  34  75 N12       29.97S

$$
NMZ028-029-538-270800-
SOUTHEAST PLAINS

CITY           SKY/WX    TMP DP  RH WIND       PRES   REMARKS
ROSWELL        FAIR      55  18  23 N7          N/A
ARTESIA        FAIR      55  18  22 N9        29.93S
CARLSBAD       FAIR      59  18  20 SW12      29.90S
HOBBS          FAIR      46  18  31 NW7       29.96R


$$




USA.gov is the U.S. government's official web portal to all federal, state and local government web resources and services.